Simultaneous Nadir Overpasses (SNOs) Predictions

Prediction of SNOs between AQUA and NOAA-19 Satellite Orbit:

Table of predicted SNOs for the next 14.0 days since TLE Epoch: 2/28/2015
Index Date (AQUA) Time (AQUA) Lat,Lon (AQUA) SZA (AQUA ) Date (NOAA-19) Time (NOAA-19) Lat,Lon (NOAA-19) SZA (NOAA-19 ) Distance(km) Time Diff (sec)
1 02/28/2015 14:50:20 79.60, -70.14 88.92 02/28/2015 14:49:31 79.60, -70.09 88.94 1.09 49
2 02/28/2015 15:39:41 -79.41, 98.83 91.38 02/28/2015 15:40:23 -79.41, 98.90 91.40 1.40 42
3 03/02/2015 20:24:04 -79.52, 27.04 92.07 03/02/2015 20:23:56 -79.51, 27.18 92.09 3.02 8
4 03/05/2015 01:08:27 -79.64, -44.89 92.74 03/05/2015 01:07:30 -79.64, -44.87 92.72 0.61 57
5 03/05/2015 01:57:49 79.45, 124.07 86.97 03/05/2015 01:58:27 79.44, 124.20 86.94 2.72 38
6 03/07/2015 06:42:12 79.59, 52.00 86.32 03/07/2015 06:42:01 79.60, 51.94 86.34 1.31 11
7 03/09/2015 11:26:34 79.71, -19.96 85.64 03/09/2015 11:25:34 79.72, -20.11 85.69 3.20 60
8 03/09/2015 12:15:55 -79.52, 149.09 94.67 03/09/2015 12:16:28 -79.52, 149.02 94.67 1.40 33
9 03/11/2015 17:00:15 -79.58, 77.56 95.45 03/11/2015 16:59:59 -79.58, 77.70 95.46 2.82 16
10 03/13/2015 21:44:36 -79.70, 5.63 96.14 03/13/2015 21:43:32 -79.69, 5.75 96.13 2.71 64




NCC Satellite Simultaneous Nadir Overpasses (SNOs) Prediction Service
